カタログに戻る

NOAA 16 DEB

運用中PO
NORAD 42371·DEBRIS·🇺🇸 United States

打ち上げ Sep 21, 2000 から Vandenberg Space Force Base

Loading…

次のパス (今後24時間)

TLE

経年Source: Space-Track

元期: Sep 10, 2026, 01:20 UTC

1 42371U 00055RP  26253.05612086  .00008975  00000-0  17396-2 0  9990
2 42371  99.0695 194.7939 0027625 162.3595 197.8569 14.63284378554984

AllMySatでNOAA 16 DEBをリアルタイム追跡

Download on the App Store